Temp
24 24 25 24 25 25 25 25 25 25 25 25 25 25 25 25 24 24 24 24 24 24 24 23 23 23 23 23 23 23 24 24 24 24 24 24 24 24 24 24 24 24
24 24 24 24 25 25 25 25 25 25 25 25 25 25 25 25 25 25 24 24 24 24 24 23 23 23 23 23 23 23 23 23 23 24 24 24 24 24 24 24 24 24
24 24 24 24 24 25 25 25 25 25 25 25 25 25 25 25 25 25 25 24 24 24 24 24 23 23 23 23 23 23 23 23 23 23 24 24 24 24 24 24 24 24
24 24 24 24 24 25 25 25 25 25 25 25 25 25 25 25 25 25 25 25 24 24 24 24 24 24 24 24 24 23 24 24 24 23 23 24 23 24 24 24 24 24
24 24 24 24 24 25 25 25 25 25 25 25 25 25 25 25 25 25 25 25 24 24 24 24 24 24 24 24 24 23 23 24 24 24 23 23 23 23 24 24 24 24
25 24 24 24 24 25 25 25 25 25 25 25 25 25 25 25 25 25 25 25 24 24 24 24 24 24 24 24 24 24 24 24 24 24 23 23 23 23 24 24 24 24
24 25 24 24 24 25 25 25 25 25 25 25 25 25 25 25 25 25 25 25 24 24 24 24 24 24 24 24 24 24 24 24 24 24 23 23 23 23 23 23 23 24
24 24 24 24 24 24 24 24 24 25 25 25 25 25 25 25 25 25 25 25 24 24 24 24 25 25 24 24 24 24 24 24 24 24 23 23 23 23 23 23 23 24
24 24 24 24 24 24 24 24 24 24 25 25 25 25 25 25 25 25 25 25 24 24 24 25 25 25 25 25 25 24 24 24 24 24 24 24 24 24 24 24 24 24
23 23 24 24 24 24 24 24 24 24 24 24 24 24 24 25 25 24 24 24 24 24 25 25 25 25 25 25 25 25 24 24 24 24 24 24 24 24 24 24 24 24
23 23 23 23 24 24 24 24 24 24 24 24 24 24 24 24 24 24 24 24 24 25 25 25 25 25 25 25 25 25 25 24 24 24 24 24 24 24 24 24 24 24
23 22 22 23 23 23 24 24 24 24 24 24 24 24 24 24 24 24 24 24 24 25 25 25 25 25 25 25 25 25 25 25 24 24 24 24 24 24 24 24 24 24
22 22 22 22 22 23 23 23 23 23 23 23 23 24 24 24 24 24 24 24 24 24 25 25 25 25 25 25 25 25 25 25 25 25 25 25 25 25 25 25 25 25
21 22 22 22 22 22 22 22 23 23 23 23 23 23 23 24 24 24 24 24 24 24 25 25 25 25 25 25 25 25 25 25 25 25 25 25 25 25 25 25 25 25
21 21 22 21 21 21 21 22 22 22 23 23 23 23 23 23 23 24 24 24 24 24 24 24 24 25 25 25 25 25 25 25 25 25 25 25 25 25 25 25 25 25
20 21 22 21 20 20 21 22 21 21 21 22 22 23 23 23 23 23 23 23 24 24 24 24 24 24 25 25 25 25 25 24 24 25 25 25 25 25 25 25 25 25
20 21 21 20 20 20 21 21 21 20 21 21 22 22 22 23 23 23 23 23 23 23 24 24 24 24 24 25 25 25 25 24 24 24 24 24 24 24 25 25 25 25
19 20 20 19 19 20 20 20 20 20 21 21 21 22 22 22 22 22 22 22 23 23 23 23 23 24 24 25 25 25 25 25 24 24 24 24 24 24 24 24 24 25
19 19 19 19 19 19 20 20 20 20 20 20 21 21 21 21 21 22 22 22 22 22 23 23 23 23 24 24 25 25 25 25 25 24 24 24 24 24 24 24 24 24
19 19 19 19 19 19 19 20 20 20 20 20 20 21 21 20 20 21 21 21 21 22 22 22 22 23 23 23 24 24 25 25 25 25 24 24 24 24 24 24 24 24
18 18 18 18 18 19 19 19 20 20 20 20 20 20 20 20 20 20 21 21 21 21 22 22 21 21 22 22 23 23 24 24 24 24 24 24 24 24 23 23 23 23
18 18 18 18 18 18 18 19 19 19 19 20 20 20 20 20 20 20 20 21 20 21 21 21 21 21 21 21 22 22 23 23 23 23 24 24 24 24 24 24 23 23
17 18 18 18 18 18 18 18 19 19 19 19 19 19 19 19 20 20 20 20 20 20 20 20 20 20 21 21 21 22 22 22 22 22 22 22 23 23 23 23 23 23
17 17 18 18 18 18 18 18 18 19 19 18 18 18 19 19 19 20 20 20 20 20 20 20 19 19 20 20 21 21 21 21 21 21 21 22 22 22 22 22 22 22
17 17 17 17 17 17 18 18 18 18 18 18 18 18 18 18 19 19 19 19 19 19 19 19 18 18 19 19 20 20 21 21 20 21 21 22 22 22 22 22 22 21
16 17 17 17 17 17 18 18 18 18 19 19 18 18 18 18 19 19 19 18 18 18 18 18 18 18 18 19 19 20 20 20 20 20 20 21 21 21 22 22 22 21
Height
870 871 873 874 875 876 877 878 879 880 881 882 883 884 884 885 886 886 887 887 888 888 889 889 890 890 891 891 892 892 893 893 893 893 893 893 894 894 894 894 894 894
869 870 872 873 874 876 877 877 879 879 880 881 882 883 884 884 885 885 886 887 887 888 888 889 889 890 890 891 891 892 892 893 893 893 893 893 893 893 894 894 894 894
867 869 871 872 874 875 876 877 877 878 879 880 881 882 883 883 884 884 885 886 887 887 888 888 889 889 890 890 891 891 892 892 892 892 893 893 893 893 893 894 893 893
866 867 869 871 872 874 875 876 877 877 878 879 880 881 882 882 883 883 884 885 886 887 887 887 888 888 889 889 890 890 891 891 891 892 892 892 892 892 892 893 893 893
864 866 868 870 871 873 874 875 876 877 878 879 879 880 881 881 882 882 883 884 885 886 886 887 887 888 888 888 889 890 890 890 890 890 891 891 891 892 892 892 892 892
864 865 867 869 870 871 873 873 875 876 877 878 878 879 880 880 881 882 882 883 884 885 885 886 886 887 887 888 888 889 889 889 889 890 890 890 891 891 891 891 891 891
862 864 865 867 868 870 871 872 873 874 876 877 877 878 878 879 880 881 881 882 883 884 884 885 886 886 886 887 887 887 888 888 889 889 889 889 890 890 890 890 890 890
861 863 864 865 867 868 870 871 872 873 874 875 876 877 877 878 879 879 880 881 882 883 883 884 885 885 885 886 886 886 887 887 888 888 888 888 889 889 889 889 889 889
860 861 863 864 866 867 869 870 871 871 872 873 875 875 876 876 878 878 879 880 880 881 882 883 883 884 884 885 885 885 885 886 887 887 887 887 888 888 888 888 888 888
859 861 862 863 865 866 868 869 870 870 871 872 873 874 875 875 876 877 878 878 879 880 880 881 882 882 883 883 884 884 884 885 885 885 886 886 886 887 887 887 887 887
857 860 861 862 863 865 866 868 869 870 870 871 872 873 874 874 875 875 876 877 877 878 879 879 880 881 881 882 882 883 883 884 884 884 884 885 885 885 885 885 885 886
855 858 860 861 862 863 864 865 867 868 869 869 870 871 872 873 873 874 874 875 876 876 877 878 878 879 880 880 881 881 882 882 883 883 883 883 883 883 883 884 884 884
854 856 858 860 861 861 862 864 865 866 867 867 868 869 870 871 872 872 872 873 874 875 875 876 876 877 878 878 879 880 880 881 881 882 882 882 882 882 882 882 882 882
853 855 857 858 859 860 861 862 863 865 865 866 866 867 868 869 870 870 871 871 872 873 873 874 874 875 876 876 877 878 878 879 879 880 880 880 881 881 881 881 881 881
852 853 855 857 860 860 860 860 862 864 864 864 864 865 866 867 868 868 869 869 870 871 872 872 872 873 874 874 875 876 876 877 877 878 878 879 879 879 879 879 879 879
848 850 852 854 857 859 857 857 859 862 863 863 862 862 863 864 865 866 867 868 868 869 870 870 871 871 871 872 873 873 874 875 875 875 876 876 877 877 877 877 877 877
845 846 849 851 853 854 853 853 856 859 862 862 861 861 861 862 863 864 864 865 866 867 868 869 869 869 869 870 870 871 871 872 872 873 873 874 874 875 875 875 875 875
845 846 847 849 850 851 851 852 854 857 859 860 860 859 859 860 861 862 862 863 864 865 867 867 867 867 867 868 868 868 869 869 870 871 871 872 872 873 873 873 873 873
845 845 846 847 849 850 851 852 853 856 857 858 858 858 858 858 860 860 860 862 863 865 866 866 866 865 865 866 865 866 866 867 867 868 869 869 870 870 871 871 871 871
843 844 845 847 847 849 850 851 852 854 856 857 856 856 856 857 858 858 858 860 862 864 865 865 864 864 864 864 864 864 864 864 865 865 866 867 867 868 868 868 869 869
842 843 845 846 846 847 849 850 851 853 855 855 855 855 855 855 856 856 856 857 860 862 865 865 864 863 863 863 862 862 862 862 863 863 864 864 865 865 866 866 866 866
844 845 846 846 846 847 848 849 851 853 854 854 854 854 854 854 854 855 855 856 858 861 864 864 863 863 863 862 861 861 861 861 861 862 862 862 863 863 863 864 865 865
846 847 847 847 846 846 847 849 850 851 853 853 854 854 853 854 854 854 855 856 858 861 862 863 863 862 861 861 860 860 860 860 860 861 861 861 862 862 862 862 863 863
849 849 848 848 848 848 849 849 850 851 852 853 853 854 854 854 854 855 856 857 859 860 861 862 862 861 860 859 859 859 859 859 859 860 861 861 861 861 861 861 862 861
851 851 851 851 852 851 851 851 851 852 852 852 853 854 854 855 855 856 857 858 859 860 860 861 861 859 859 858 858 858 858 858 858 859 860 860 861 861 861 861 861 861
854 854 854 854 853 853 852 852 852 853 853 853 853 854 854 855 855 857 857 858 859 860 860 860 860 859 859 858 857 857 857 857 857 858 859 859 860 860 860 860 861 861
Wind_Speed
21 20 18 16 14 12 11 11 11 11 10 9 9 7 7 8 7 7 7 6 6 5 5 4 4 5 5 5 5 5 4 4 4 4 4 4 4 3 3 3 2 2
22 21 20 18 16 14 12 12 11 12 11 10 8 7 6 7 7 8 8 7 6 5 5 4 4 5 5 5 5 5 5 5 5 5 5 5 4 4 3 3 3 3
23 22 21 19 17 15 13 12 11 12 12 11 9 7 6 5 6 7 8 7 7 6 5 4 4 5 5 5 5 5 5 6 5 5 6 6 5 4 4 4 4 3
24 23 21 20 18 16 13 12 12 12 13 12 11 9 7 5 5 6 7 7 7 6 5 4 4 5 5 5 5 5 6 6 6 6 7 7 6 6 5 5 5 5
23 22 22 21 19 16 14 13 13 12 13 12 11 9 8 7 6 6 7 7 7 7 6 5 5 5 6 6 6 6 6 6 6 7 7 7 7 7 6 6 6 6
23 22 22 22 20 17 15 14 14 13 12 12 11 10 9 8 8 7 7 7 7 7 6 6 6 7 7 7 7 7 7 6 6 7 7 7 7 7 7 7 7 7
23 22 22 22 21 18 16 15 15 14 13 12 11 10 9 8 8 8 7 7 8 8 7 7 7 7 8 8 8 8 8 7 7 7 7 8 8 8 7 7 8 8
23 22 21 22 21 19 18 17 16 16 15 14 13 11 9 8 8 8 8 7 8 8 8 8 7 7 8 8 9 9 8 7 7 7 7 7 8 8 8 8 8 9
22 22 21 22 21 19 18 16 15 16 17 16 13 11 10 9 8 8 8 7 7 8 8 9 9 9 9 9 9 9 9 8 8 8 8 7 8 8 8 8 8 8
18 20 21 21 21 20 19 16 14 14 16 16 14 11 10 10 9 8 8 8 8 8 8 9 10 10 10 10 10 10 10 10 10 10 10 9 9 8 8 8 8 8
16 18 20 20 21 21 20 18 15 13 14 14 14 12 11 10 10 10 10 10 10 10 9 10 10 11 11 11 11 11 11 11 11 11 11 11 10 10 9 9 9 8
15 15 18 19 20 20 20 19 15 13 13 13 13 13 12 12 12 12 12 12 12 12 11 11 11 11 12 12 12 12 12 12 12 12 12 12 11 11 10 10 10 10
15 14 14 16 17 18 18 18 16 13 12 11 12 13 13 12 12 12 12 13 12 12 12 11 11 12 12 12 12 12 13 14 14 14 13 13 12 12 11 11 11 11
14 14 14 15 16 16 15 15 15 15 14 13 12 12 11 11 10 10 10 10 10 11 11 10 10 11 12 12 12 12 13 14 14 15 14 14 14 13 13 13 13 13
15 16 17 18 17 16 14 13 13 15 16 16 15 12 11 10 10 9 9 8 9 10 10 9 10 10 11 11 11 12 13 13 14 15 15 15 16 15 15 15 15 14
18 18 20 20 19 18 18 16 14 12 13 15 16 16 15 14 13 12 10 9 9 9 9 9 9 10 12 12 11 12 12 12 13 15 15 15 17 17 17 16 16 15
18 19 20 21 21 21 21 19 16 14 14 15 15 16 16 14 14 12 11 10 10 10 9 8 8 10 13 13 13 13 13 13 13 13 14 15 15 16 16 16 15 15
17 17 18 19 20 18 17 17 15 13 14 14 14 14 13 10 9 9 9 8 8 9 8 6 7 11 13 13 14 14 15 15 14 12 11 11 12 13 14 14 14 14
16 17 18 18 16 14 13 13 13 11 10 10 9 8 8 7 5 5 5 5 5 5 4 3 6 10 11 11 12 13 15 16 15 13 11 10 10 11 11 12 12 13
10 11 12 12 13 15 15 13 13 11 9 8 7 7 7 7 6 5 4 3 3 4 3 3 5 8 7 8 9 10 11 13 14 13 12 11 10 10 10 11 12 13
12 12 13 13 14 17 17 15 14 12 11 10 9 7 7 6 6 6 5 3 2 3 4 4 4 4 4 5 6 6 7 8 9 10 11 10 9 10 10 10 11 11
14 13 14 14 15 16 16 15 14 12 11 10 10 8 6 5 5 5 5 4 3 3 4 4 3 2 1 1 3 4 4 4 5 6 7 7 7 8 8 8 8 8
14 13 13 12 12 13 13 12 11 10 9 8 8 8 8 6 6 5 5 4 4 4 3 2 1 2 3 3 3 3 3 2 2 2 3 4 5 6 7 7 7 8
16 15 14 12 11 11 11 11 9 8 7 6 5 6 7 6 5 5 5 4 3 3 2 2 1 2 4 4 4 4 3 2 0 0 1 2 3 4 4 4 5 6
18 17 17 15 13 12 12 11 10 9 8 8 7 6 6 6 5 5 5 5 4 3 3 4 3 2 1 1 2 3 3 2 1 1 2 3 3 4 4 3 3 4
18 17 17 16 15 15 14 13 12 11 11 11 10 9 8 8 7 8 8 7 6 6 5 6 6 5 4 2 2 2 1 2 2 2 1 0 2 2 2 2 2 2
Wind_Direction
218 222 225 228 232 236 242 248 249 246 238 232 234 241 247 251 249 242 243 246 250 256 257 259 256 249 251 252 254 259 262 267 269 271 280 285 288 287 279 279 275 275
223 226 229 229 232 236 242 247 247 240 237 235 236 245 260 264 259 250 248 252 257 260 259 260 258 252 253 254 260 270 274 274 275 276 284 289 290 287 284 286 284 286
226 228 228 228 230 234 240 246 242 232 233 238 238 245 263 271 264 249 245 251 257 259 261 261 257 252 248 247 257 271 275 275 277 281 284 283 281 283 286 288 287 285
227 229 227 225 228 232 236 240 237 231 232 237 237 241 250 250 247 240 239 246 253 257 261 260 256 248 240 242 253 265 273 274 274 277 280 277 277 282 285 287 285 283
229 229 227 226 229 232 233 234 234 233 234 236 238 245 247 237 230 233 236 241 248 254 259 257 252 247 244 249 255 262 269 271 272 274 275 274 276 279 283 284 283 282
231 230 229 229 231 232 232 233 234 234 236 239 243 250 251 239 232 233 236 240 245 250 253 255 254 249 249 254 258 261 262 260 265 269 269 270 272 275 278 280 279 279
232 232 230 229 231 233 231 231 233 236 238 244 250 253 250 242 240 241 241 244 248 252 253 258 261 257 256 258 258 260 262 261 263 265 264 264 269 273 274 276 277 276
234 234 233 229 229 233 232 231 234 237 242 247 251 251 244 241 244 245 247 249 252 257 262 264 265 263 263 263 261 260 257 253 255 261 265 265 267 272 272 273 276 276
236 237 235 232 230 231 232 232 234 238 244 246 245 243 239 239 243 245 250 256 255 258 262 266 270 271 270 268 264 260 254 248 249 255 261 262 263 268 270 271 275 276
241 241 239 235 233 233 235 236 237 240 246 244 239 237 236 237 241 244 249 256 258 258 258 264 272 275 274 272 267 263 258 255 254 257 260 262 262 264 268 272 275 277
246 245 243 241 238 239 239 240 242 244 246 242 236 235 237 240 244 248 252 255 258 260 260 265 272 275 275 274 271 270 267 261 260 262 263 264 265 269 272 275 276 277
244 243 243 243 242 242 241 240 241 243 244 240 235 236 239 242 246 248 253 256 257 260 262 264 269 273 275 275 273 272 271 267 265 266 269 269 270 271 273 275 278 279
235 236 239 240 240 241 243 242 241 241 241 238 237 239 240 241 243 247 254 259 258 259 262 262 264 269 274 278 277 274 273 272 268 267 269 272 274 273 272 273 277 280
228 231 235 240 240 238 239 241 241 240 239 237 237 239 239 239 241 244 250 254 254 258 261 260 262 266 271 277 280 279 276 275 274 272 269 271 275 276 274 275 278 281
227 231 237 245 248 243 234 230 236 239 237 235 232 230 233 236 237 240 242 244 250 257 259 257 258 261 266 273 279 281 280 277 276 276 272 270 273 275 275 277 280 280
224 230 234 237 241 241 234 227 230 237 235 232 228 226 229 232 234 238 241 243 248 253 256 257 256 256 262 266 268 272 274 272 273 277 278 274 274 274 275 276 278 278
224 229 229 228 228 232 231 226 225 230 234 232 228 225 227 231 235 239 242 244 247 249 253 254 252 254 259 262 260 259 260 261 265 271 275 275 273 273 274 276 276 279
218 221 217 216 219 222 223 219 216 220 227 229 228 227 224 224 229 235 241 247 248 249 250 247 249 257 262 263 261 258 255 256 258 259 261 265 267 269 274 277 279 281
212 215 212 211 212 210 206 203 199 201 208 211 214 214 208 204 206 212 224 237 244 247 239 224 246 260 265 265 263 260 256 254 254 256 256 257 260 264 269 275 278 282
176 182 184 187 186 181 179 180 179 181 186 182 176 176 182 185 183 183 192 204 235 246 223 205 236 252 259 261 261 261 257 252 251 252 254 256 260 264 267 269 274 279
115 119 127 135 143 149 152 154 158 161 163 160 161 170 183 190 191 191 191 186 205 229 216 208 221 233 244 254 254 253 252 249 248 247 248 252 258 264 268 270 273 277
108 110 115 121 126 131 135 139 144 147 147 148 154 161 170 186 193 184 175 176 178 188 198 204 215 231 260 260 241 235 235 239 241 243 244 245 249 255 262 265 269 274
102 103 107 115 118 118 120 126 135 141 142 140 142 146 151 166 179 175 175 187 194 202 207 193 211 277 270 260 243 221 201 199 217 237 248 248 250 253 256 260 264 266
100 101 105 110 109 105 106 111 117 126 134 133 127 129 132 138 148 155 158 158 165 191 194 133 67 301 269 265 264 248 234 228 227 336 295 281 277 273 268 267 268 268
100 103 107 110 108 104 105 106 105 108 117 120 116 114 118 123 129 130 124 117 118 123 125 120 98 52 18 329 303 284 270 268 276 294 283 285 287 285 281 279 277 281
91 94 98 101 100 97 96 98 100 103 109 111 109 106 107 111 113 112 108 108 113 117 117 118 109 91 76 63 45 48 64 101 109 112 122 340 327 315 295 288 286 295